Sedalia, MO

12:26 AM CDT on April 22, 2018 (GMT -0500)
Sedalia Memorial

Weather History for KDMO - September, 2012

Change the Weather History Date:

Tuesday, September 25, 2012

  Actual Average Record
Temperature  
Mean Temperature 75 °F 65 °F  
Max Temperature 84 °F 76 °F 93 °F (1938)
Min Temperature 66 °F 55 °F 32 °F (1989)
Degree Days  
Heating Degree Days 0 3  
Month to date heating degree days 37 24  
Since 1 July heating degree days 37 25  
Cooling Degree Days 10 3  
Month to date cooling degree days 156 150  
Year to date cooling degree days 2068 1435  
Growing Degree Days 24 (Base 50)    
Moisture  
Dew Point 63 °F    
Average Humidity 68    
Maximum Humidity 81    
Minimum Humidity 55    
Precipitation  
Precipitation 0.19 in 0.13 in 1.71 in (1993)
Month to date precipitation 1.35 3.49  
Year to date precipitation 21.89 31.43  
Sea Level Pressure  
Sea Level Pressure 29.84 in    
Wind  
Wind Speed 8 mph (SW)    
Max Wind Speed 20 mph    
Max Gust Speed 24 mph    
Visibility 10 miles    
Events Rain , Thunderstorm    
T = Trace of Precipitation, MM = Missing Value Source: NWS Daily Summary

Daily Weather History Graph

Daily Weather History Graph

Search for Another Location

Airport or City:

Astronomy

Sep. 25, 2012 Rise Set
Actual Time 7:03 AM CDT 7:04 PM CDT
Civil Twilight 6:37 AM CDT 7:30 PM CDT
Nautical Twilight 6:06 AM CDT 8:01 PM CDT
Astronomical Twilight 5:34 AM CDT 8:32 PM CDT
Moon 4:27 PM CDT (9/25) 2:28 AM CDT (9/25)
Length of Visible Light 12h 53m
Length of Day
12h 00m
Waxing Gibbous, 80% of the Moon is Illuminated
Sep 25
Waxing Gibbous
Sep 29
Full
Oct 8
Last Quarter
Oct 15
New
Oct 21
First Quarter

Hourly Weather History & Observations

Time (CDT) Temp. Heat Index Dew Point Humidity Pressure Visibility Wind Dir Wind Speed Gust Speed Precip Events Conditions
12:53 AM 68.0 °F - 55.9 °F 65% 29.84 in 10.0 mi South 12.7 mph - N/A   Clear
1:53 AM 69.1 °F - 57.9 °F 68% 29.83 in 10.0 mi South 10.4 mph - N/A   Clear
2:53 AM 71.1 °F - 59.0 °F 66% 29.79 in 10.0 mi South 15.0 mph - N/A   Clear
3:53 AM 72.0 °F - 59.0 °F 64% 29.77 in 10.0 mi SSW 10.4 mph - N/A   Clear
4:53 AM 73.9 °F - 60.1 °F 62% 29.78 in 10.0 mi SSW 15.0 mph - N/A   Clear
5:53 AM 75.9 °F - 60.1 °F 58% 29.81 in 10.0 mi West 6.9 mph 17.3 mph N/A   Partly Cloudy
6:53 AM 66.9 °F - 60.1 °F 79% 29.84 in 10.0 mi Variable 3.5 mph - N/A   Partly Cloudy
7:53 AM 66.9 °F - 59.0 °F 76% 29.84 in 10.0 mi ESE 4.6 mph - N/A   Clear
8:53 AM 71.1 °F - 61.0 °F 70% 29.85 in 10.0 mi East 4.6 mph - N/A   Clear
9:37 AM 77.0 °F - 62.6 °F 61% 29.87 in 10.0 mi Calm Calm - N/A Thunderstorm Clear
9:53 AM 78.1 °F - 63.0 °F 60% 29.85 in 10.0 mi SW 3.5 mph - N/A   Clear
10:07 AM 78.8 °F - 62.6 °F 57% 29.87 in 10.0 mi WSW 5.8 mph - N/A Thunderstorm Thunderstorm
10:53 AM 73.0 °F - 64.9 °F 76% 29.85 in 10.0 mi SW 6.9 mph - 0.05 in Thunderstorm Partly Cloudy
11:19 AM 73.4 °F - 64.4 °F 73% 29.86 in 10.0 mi SW 10.4 mph - N/A   Clear
11:31 AM 73.4 °F - 66.2 °F 78% 29.85 in 10.0 mi SSW 9.2 mph - N/A Thunderstorm Clear
11:53 AM 75.9 °F - 66.0 °F 71% 29.83 in 10.0 mi SSW 9.2 mph - N/A   Clear
12:53 PM 79.0 °F - 64.9 °F 62% 29.83 in 10.0 mi SW 10.4 mph - N/A   Clear
2:53 PM 82.0 °F 83.8 °F 64.9 °F 56% 29.80 in 10.0 mi WSW 10.4 mph - N/A   Clear
3:53 PM 81.0 °F 82.7 °F 64.9 °F 58% 29.81 in 10.0 mi SW 5.8 mph - N/A   Clear
4:53 PM 82.0 °F 83.8 °F 64.9 °F 56% 29.80 in 10.0 mi SW 5.8 mph - N/A   Clear
5:53 PM 78.1 °F - 66.9 °F 68% 29.78 in 10.0 mi SSW 3.5 mph - 0.00 in   Mostly Cloudy
6:53 PM 75.0 °F - 66.9 °F 76% 29.80 in 10.0 mi NNW 4.6 mph - N/A   Clear
7:53 PM 73.9 °F - 66.0 °F 76% 29.81 in 10.0 mi WSW 3.5 mph - N/A   Clear
8:53 PM 73.9 °F - 66.9 °F 79% 29.83 in 10.0 mi SSW 6.9 mph - N/A   Clear
9:53 PM 73.0 °F - 68.0 °F 84% 29.85 in 10.0 mi SSW 4.6 mph - 0.01 in Rain , Thunderstorm Light Thunderstorms and Rain
10:24 PM 71.6 °F - 68.0 °F 88% 29.91 in 9.0 mi WNW 6.9 mph - 0.02 in Rain Light Rain
10:53 PM 73.0 °F - 66.0 °F 79% 29.94 in 10.0 mi West 10.4 mph - 0.02 in Rain Light Rain
11:26 PM 71.6 °F - 64.4 °F 78% 29.97 in 10.0 mi SSW 6.9 mph - 0.02 in Rain , Thunderstorm Light Rain
11:41 PM 69.8 °F - 64.4 °F 83% 29.98 in 9.0 mi SW 9.2 mph - 0.04 in Rain Light Rain